Mankato, MN

4:02 PM CDT on September 16, 2019 (GMT -0500)
Mankato Regional

Weather History for KMKT - August, 2019

Change the Weather History Date:

Friday, August 23, 2019

  Actual Average Record
Temperature  
Mean Temperature 64 °F -  
Max Temperature 78 °F 75 °F 89 °F (2012)
Min Temperature 54 °F 58 °F 51 °F (2005)
Growing Degree Days 14 (Base 50)    
Moisture  
Dew Point 59 °F    
Average Humidity 79    
Maximum Humidity 100    
Minimum Humidity 58    
Precipitation  
Precipitation 0.00 in - - ()
Sea Level Pressure  
Sea Level Pressure 30.18 in    
Wind  
Wind Speed 6 mph ()    
Max Wind Speed 12 mph    
Max Gust Speed -    
Visibility 10.0 miles    
Events      
Averages and records for this station are not official NWS values.
T = Trace of Precipitation, MM = Missing Value Source: Averaged Metar Reports

Daily Weather History Graph

Daily Weather History Graph

Search for Another Location

Airport or City:

Astronomy

Aug. 23, 2019 Rise Set
Actual Time 6:28 AM CDT 8:07 PM CDT
Civil Twilight 5:57 AM CDT 8:38 PM CDT
Nautical Twilight 5:20 AM CDT 9:15 PM CDT
Astronomical Twilight 4:39 AM CDT 9:55 PM CDT
Moon No Moon Rise 2:22 PM CDT (8/23)
Length of Visible Light 14h 40m
Length of Day
13h 39m
Waning Gibbous, 49% of the Moon is Illuminated
Aug 23
Waning Gibbous
Aug 30
New
Sep 5
First Quarter
Sep 13
Full
Sep 21
Last Quarter

Hourly Weather History & Observations

Time (CDT) Temp. Dew Point Humidity Pressure Visibility Wind Dir Wind Speed Gust Speed Precip Events Conditions
12:56 AM 60.1 °F 54.0 °F 80% 30.15 in 10.0 mi ENE 4.6 mph - N/A   Clear
1:56 AM 57.9 °F 54.0 °F 87% 30.14 in 10.0 mi East 5.8 mph - N/A   Clear
2:56 AM 57.0 °F 54.0 °F 89% 30.14 in 10.0 mi East 6.9 mph - N/A   Clear
3:56 AM 55.9 °F 54.0 °F 93% 30.14 in 10.0 mi East 5.8 mph - N/A   Clear
4:56 AM 55.9 °F 54.0 °F 93% 30.15 in 10.0 mi East 5.8 mph - N/A   Clear
5:56 AM 54.0 °F 54.0 °F 100% 30.17 in 10.0 mi Calm Calm - N/A   Clear
6:56 AM 55.9 °F 55.0 °F 97% 30.18 in 10.0 mi ENE 5.8 mph - N/A   Clear
7:56 AM 57.0 °F 55.9 °F 96% 30.19 in 10.0 mi East 6.9 mph - N/A   Clear
8:56 AM 61.0 °F 59.0 °F 93% 30.20 in 10.0 mi East 9.2 mph - N/A   Clear
9:56 AM 64.0 °F 60.1 °F 87% 30.21 in 10.0 mi ESE 6.9 mph - N/A   Clear
10:56 AM 68.0 °F 61.0 °F 78% 30.20 in 10.0 mi East 8.1 mph - N/A   Clear
11:56 AM 70.0 °F 60.1 °F 71% 30.20 in 10.0 mi East 6.9 mph - N/A   Clear
12:34 PM 71.6 °F 60.8 °F 69% 30.19 in 10.0 mi SE 6.9 mph - N/A   Mostly Cloudy
12:56 PM 73.0 °F 60.1 °F 64% 30.19 in 10.0 mi SSE 6.9 mph - N/A   Mostly Cloudy
1:04 PM 73.4 °F 60.8 °F 65% 30.19 in 10.0 mi SE 8.1 mph - N/A   Partly Cloudy
1:56 PM 75.0 °F 61.0 °F 62% 30.19 in 10.0 mi SE 8.1 mph - N/A   Partly Cloudy
2:56 PM 75.9 °F 60.1 °F 58% 30.17 in 10.0 mi South 5.8 mph - N/A   Scattered Clouds
3:56 PM 75.9 °F 61.0 °F 60% 30.16 in 10.0 mi East 5.8 mph - N/A   Scattered Clouds
4:56 PM 75.9 °F 61.0 °F 60% 30.16 in 10.0 mi ESE 11.5 mph - N/A   Overcast
5:56 PM 73.9 °F 60.1 °F 62% 30.17 in 10.0 mi SSE 9.2 mph - N/A   Mostly Cloudy
6:56 PM 75.0 °F 62.1 °F 64% 30.17 in 10.0 mi SE 6.9 mph - N/A   Overcast
7:56 PM 70.0 °F 62.1 °F 76% 30.17 in 10.0 mi ESE 6.9 mph - N/A   Scattered Clouds
8:56 PM 66.9 °F 62.1 °F 84% 30.19 in 10.0 mi SE 5.8 mph - N/A   Partly Cloudy
9:56 PM 64.9 °F 61.0 °F 87% 30.19 in 10.0 mi SE 8.1 mph - N/A   Clear
10:56 PM 63.0 °F 60.1 °F 90% 30.19 in 10.0 mi ESE 6.9 mph - N/A   Clear
11:56 PM 62.1 °F 60.1 °F 93% 30.20 in 10.0 mi SE 8.1 mph - N/A   Clear